FW4085 Weather Reports


time (UTC)temp
F
wind
direction
speed
knots
gust
knots
rain 1hr
in
rain 24hr
in
rain mn
in
humidity
%
barometer
mb
20260510171526 60 337 1.7 3.5 0.00 0.15 0.00 79 856.1
20260510170526 60 352 1.7 4.3 0.00 0.15 0.00 78 856.1
20260510165522 61 6 1.7 4.3 0.00 0.16 0.00 77 856.2
20260510164527 61 328 1.7 5.2 0.00 0.17 0.00 75 856.2
20260510163527 62 284 1.7 5.2 0.00 0.18 0.00 73 856.2
20260510162526 61 289 1.7 4.3 0.00 0.18 0.00 75 856.2
20260510161544 61 302 1.7 6.1 0.00 0.18 0.00 75 856.1
20260510160523 62 283 2.6 8.7 0.00 0.19 0.00 73 856.2
20260510155527 62 269 1.7 4.3 0.00 0.19 0.00 72 856.2
20260510154525 62 270 1.7 5.2 0.00 0.19 0.00 73 856.3
20260510153524 62 227 1.7 6.1 0.00 0.20 0.00 72 856.3
20260510152524 63 258 2.6 5.2 0.00 0.20 0.00 70 856.3
20260510151524 63 262 2.6 4.3 0.00 0.21 0.00 71 856.3
20260510150525 63 263 2.6 7.0 0.00 0.21 0.00 72 856.3
20260510145545 64 256 1.7 4.3 0.00 0.22 0.00 73 856.4
20260510144525 64 226 1.7 6.1 0.00 0.23 0.00 74 856.4
20260510143526 63 235 2.6 5.2 0.00 0.24 0.00 75 856.4
20260510142542 61 228 1.7 7.0 0.00 0.25 0.00 78 856.3
20260510141526 60 115 1.7 5.2 0.00 0.26 0.00 78 856.2
20260510140546 59 106 1.7 5.2 0.00 0.27 0.00 82 856.1
20260510135520 57 99 1.7 6.1 0.00 0.27 0.00 84 856.0
20260510134517 57 85 2.6 4.3 0.00 0.28 0.00 84 856.0
20260510133518 57 94 3.5 7.0 0.00 0.29 0.00 85 855.9
20260510132521 57 79 1.7 4.3 0.00 0.29 0.00 84 856.0
20260510131538 57 92 1.7 4.3 0.00 0.30 0.00 85 855.9
20260510130518 57 78 1.7 4.3 0.00 0.30 0.00 84 855.9
20260510125518 58 84 1.7 4.3 0.00 0.30 0.00 82 856.0
20260510124519 58 77 0.9 1.7 0.00 0.30 0.00 83 856.0
20260510123519 57 111 0.9 1.7 0.00 0.30 0.00 84 855.9
20260510122525 57 129 0.9 1.7 0.00 0.30 0.00 85 855.9
20260510121525 55 47 0.9 1.7 0.00 0.30 0.00 87 855.9
20260510120525 54 98 1.7 3.5 0.00 0.30 0.00 90 855.8
20260510115525 53 67 0.0 1.7 0.00 0.30 0.00 96 855.7
20260510114525 51 138 0.0 1.7 0.00 0.30 0.00 98 855.5
20260510113545 51 97 0.0 0.9 0.00 0.30 0.00 99 855.5
20260510112526 50 91 0.9 1.7 0.00 0.30 0.00 99 855.4
20260510111526 50 110 0.9 1.7 0.00 0.30 0.00 99 855.4
20260510110546 50 199 0.9 0.9 0.00 0.30 0.00 99 855.4
20260510105526 49 209 0.9 0.9 0.00 0.30 0.00 99 855.4
20260510104527 49 155 0.9 0.9 0.00 0.30 0.00 99 855.3
20260510103527 48 179 0.9 1.7 0.00 0.30 0.00 99 855.3
20260510102527 48 154 0.9 0.9 0.00 0.30 0.00 99 855.3
20260510101528 48 130 0.9 0.9 0.00 0.30 0.00 99 855.3
20260510100527 48 103 0.9 1.7 0.00 0.30 0.00 99 855.2
20260510095528 47 121 0.9 1.7 0.00 0.30 0.00 99 855.2
20260510094548 47 101 0.9 1.7 0.00 0.30 0.00 99 855.2
20260510093528 47 114 0.9 1.7 0.00 0.30 0.00 99 855.2
20260510092529 48 107 0.9 1.7 0.00 0.30 0.00 99 855.2
20260510091528 49 192 0.9 1.7 0.00 0.30 0.00 99 855.3
20260510090528 49 125 0.9 1.7 0.00 0.30 0.00 99 855.3
20260510085529 49 226 0.9 1.7 0.00 0.30 0.00 99 855.3
20260510084529 49 113 0.9 1.7 0.00 0.30 0.00 99 855.3
20260510083529 49 122 0.9 1.7 0.00 0.30 0.00 99 855.3
20260510082529 49 122 0.9 2.6 0.00 0.30 0.00 99 855.3
20260510081529 49 95 0.9 2.6 0.00 0.30 0.00 99 855.3
20260510080530 49 89 1.7 2.6 0.00 0.30 0.00 99 855.3
20260510075530 49 208 0.9 1.7 0.00 0.30 0.00 99 855.3
20260510074530 49 335 0.0 0.9 0.00 0.30 0.00 99 855.3
20260510073550 49 212 0.9 1.7 0.00 0.30 0.00 99 855.3
20260510072530 49 82 0.9 1.7 0.00 0.30 0.00 99 855.4
20260510071550 49 119 0.9 0.9 0.00 0.30 0.00 99 855.4
20260510070531 49 119 0.9 1.7 0.00 0.30 0.00 99 855.3
20260510065551 49 181 1.7 2.6 0.00 0.30 0.00 99 855.3
20260510064531 48 217 0.9 1.7 0.00 0.30 0.00 99 855.3
20260510063551 48 184 0.9 1.7 0.00 0.30 0.00 99 855.3
20260510062531 49 174 0.9 1.7 0.00 0.30 0.00 100 855.3
20260510061532 49 147 0.9 1.7 0.00 0.30 0.00 100 855.3
20260510060532 49 99 1.7 3.5 0.00 0.30 0.00 100 855.3
20260510055531 49 122 0.9 1.7 0.00 0.30 0.00 99 855.3
20260510054532 49 142 0.9 0.9 0.00 0.30 0.00 98 855.3
20260510053532 50 112 1.7 2.6 0.00 0.30 0.00 98 855.4
20260510052532 50 242 0.9 1.7 0.00 0.30 0.00 97 855.4
20260510051537 50 92 1.7 4.3 0.00 0.30 0.00 97 855.4
20260510050558 50 252 1.7 2.6 0.00 0.30 0.00 97 855.4
20260510045518 50 105 1.7 2.6 0.00 0.30 0.00 97 855.4
20260510044518 50 68 0.9 1.7 0.00 0.30 0.00 98 855.4
20260510043533 50 95 0.9 1.7 0.00 0.30 0.00 98 855.4
20260510042538 50 205 0.9 3.5 0.00 0.30 0.00 98 855.4
20260510041519 50 86 1.7 3.5 0.00 0.30 0.00 98 855.4
20260510040519 50 240 0.9 2.6 0.00 0.30 0.00 99 855.4
20260510035519 50 154 0.9 1.7 0.00 0.30 0.30 99 855.4
20260510034519 50 192 0.9 1.7 0.00 0.30 0.30 99 855.4
20260510033519 50 128 0.9 1.7 0.00 0.30 0.30 99 855.4
20260510032559 50 265 0.9 1.7 0.00 0.30 0.30 99 855.4
20260510031519 50 264 0.9 2.6 0.00 0.30 0.30 100 855.4
20260510030600 50 88 0.9 2.6 0.00 0.30 0.30 99 855.4
20260510025520 50 104 0.9 0.9 0.00 0.30 0.30 99 855.4
20260510024540 50 160 0.9 0.9 0.00 0.30 0.30 99 855.4
20260510023540 50 191 0.9 0.9 0.00 0.30 0.30 98 855.4
20260510022520 50 56 0.9 1.7 0.00 0.30 0.30 97 855.4
20260510021520 50 106 0.9 2.6 0.00 0.30 0.30 97 855.4
20260510020521 50 128 0.9 1.7 0.00 0.30 0.30 98 855.4
20260510015521 49 101 1.7 2.6 0.00 0.30 0.30 99 855.4
20260510014521 49 132 0.9 1.7 0.00 0.30 0.30 100 855.3
20260510013522 49 108 0.9 2.6 0.00 0.30 0.30 100 855.3
20260510012522 49 100 1.7 1.7 0.00 0.30 0.30 100 855.3
20260510011522 49 121 0.9 1.7 0.00 0.30 0.30 100 855.3
20260510010522 49 224 0.9 1.7 0.00 0.30 0.30 100 855.3
20260510005602 49 218 0.9 1.7 0.00 0.30 0.30 99 855.3
20260510004522 50 83 0.9 1.7 0.00 0.30 0.30 99 855.4
20260510003522 50 115 0.9 1.7 0.00 0.30 0.30 99 855.4
20260510002522 50 73 1.7 3.5 0.00 0.30 0.30 99 855.4
20260510001522 50 147 0.9 1.7 0.00 0.30 0.30 99 855.4
20260510000523 50 60 0.9 0.9 0.00 0.30 0.30 98 855.4
20260509235523 51 256 0.9 1.7 0.00 0.30 0.30 98 855.4
20260509234523 51 66 0.9 1.7 0.00 0.30 0.30 97 855.5
20260509233523 51 106 0.9 2.6 0.00 0.30 0.30 98 855.5
20260509232524 51 92 1.7 2.6 0.00 0.30 0.30 97 855.5
20260509231524 51 65 0.9 2.6 0.00 0.30 0.30 98 855.5
20260509230524 51 93 1.7 2.6 0.00 0.30 0.30 97 855.5
20260509225524 51 136 0.9 1.7 0.00 0.30 0.30 98 855.5
20260509224525 51 118 0.9 1.7 0.00 0.30 0.30 98 855.5
20260509223524 50 78 1.7 2.6 0.00 0.30 0.30 97 855.4
20260509222519 50 79 1.7 4.3 0.00 0.30 0.30 97 855.5
20260509221525 50 82 1.7 4.3 0.00 0.30 0.30 97 855.4
20260509220524 50 98 0.9 1.7 0.00 0.30 0.30 97 855.4
20260509215525 50 85 0.9 2.6 0.00 0.30 0.30 97 855.4
20260509214519 49 80 2.6 4.3 0.00 0.30 0.30 98 855.4
20260509213559 49 78 2.6 4.3 0.00 0.30 0.30 98 855.4
20260509212519 49 85 1.7 4.3 0.00 0.30 0.30 97 855.4
20260509211519 48 64 2.6 6.1 0.00 0.30 0.30 98 855.3
20260509210539 48 69 3.5 4.3 0.00 0.30 0.30 98 855.3
20260509205520 48 62 1.7 7.8 0.01 0.30 0.30 99 855.3
20260509204520 48 68 2.6 4.3 0.01 0.30 0.30 100 855.3
20260509203526 47 64 1.7 4.3 0.01 0.30 0.30 100 855.3
20260509202546 47 75 1.7 3.5 0.02 0.30 0.30 100 855.2
20260509201526 47 102 1.7 3.5 0.03 0.30 0.30 100 855.2
20260509200526 47 68 1.7 4.3 0.03 0.30 0.30 100 855.2
20260509195526 47 88 2.6 4.3 0.03 0.29 0.29 100 855.2
20260509194525 47 84 2.6 7.0 0.03 0.29 0.29 100 855.2
20260509193553 47 111 1.7 3.5 0.04 0.29 0.29 100 855.2
20260509192532 46 98 0.9 2.6 0.04 0.28 0.28 100 855.2
20260509191526 46 96 2.6 5.2 0.05 0.27 0.27 99 855.2
20260509190526 46 90 1.7 4.3 0.07 0.27 0.27 100 855.2
20260509185527 46 120 1.7 5.2 0.07 0.26 0.26 99 855.2
20260509184532 46 70 1.7 4.3 0.08 0.26 0.26 100 855.2
20260509183524 46 65 2.6 9.6 0.08 0.25 0.25 99 855.1
20260509182527 46 86 1.7 5.2 0.08 0.24 0.24 99 855.1
20260509181527 45 78 1.7 5.2 0.07 0.22 0.22 99 855.1
20260509180522 45 83 2.6 4.3 0.05 0.20 0.20 99 855.1
20260509175542 45 62 2.6 7.0 0.05 0.19 0.19 99 855.1
20260509174519 45 81 2.6 9.6 0.05 0.18 0.18 99 855.1
20260509173528 45 69 1.7 3.5 0.04 0.17 0.17 99 855.1
20260509172528 45 70 1.7 4.3 0.03 0.16 0.16 99 855.1